RH
48 50 53 56 58 59 59 60 61 62 63 65 67 68 68 67 66 65 65 64 64 63 63 64 64 63 60 55 51 49 50 54 55 57 59 65 74 83 86 84 82 80 79 78 78 78 78 77 76 75 73 73 73 74 76 77 79 81 82 82 81 81 81 81 81 80 79 78 78 77 77 78 77 76 75 74 74 74 76 77 78 79 78 80 83 86
51 53 56 59 61 62 63 63 64 65 67 70 72 73 73 72 71 70 70 69 68 67 66 67 67 65 62 57 53 50 51 54 56 57 59 67 77 84 85 83 83 82 80 78 77 77 75 74 73 72 71 71 72 73 76 78 81 82 82 81 81 80 80 80 80 79 79 79 79 80 81 82 82 82 82 81 79 77 75 74 73 73 73 75 76 77
55 58 60 61 63 66 68 67 67 68 71 75 77 77 76 76 75 74 73 72 71 70 70 70 69 68 65 59 54 52 52 55 57 58 60 69 78 84 86 85 84 83 81 80 79 78 75 74 73 72 71 70 72 74 77 79 80 80 80 79 79 79 80 80 80 81 82 82 83 84 85 86 86 86 86 85 83 81 79 77 76 75 74 74 74 74
60 62 64 66 68 70 72 72 72 74 77 79 80 80 78 78 77 76 75 74 73 73 72 72 71 70 67 61 56 53 54 56 58 59 61 65 71 77 83 84 83 82 81 81 80 78 76 74 74 74 74 73 74 76 79 80 80 79 78 78 79 80 80 81 82 83 84 84 86 87 87 88 87 87 87 86 85 84 84 84 83 82 81 80 80 80
64 66 69 71 73 75 77 78 80 81 83 84 83 82 80 78 77 76 76 75 74 74 74 74 73 71 68 62 58 55 55 58 59 59 59 59 62 68 78 81 82 81 80 80 79 78 74 73 73 74 75 76 77 79 80 80 79 79 79 79 79 80 80 81 83 84 85 86 87 88 87 89 89 89 89 89 90 91 91 93 93 93 92 92 92 91
69 72 76 78 79 80 82 84 86 86 87 87 86 84 82 79 77 76 76 75 75 75 76 76 74 72 68 63 59 56 57 58 59 58 56 56 61 68 77 80 82 83 81 81 79 76 74 74 75 75 75 77 79 80 80 80 80 80 79 79 79 79 79 81 84 85 86 87 87 89 89 91 90 90 91 93 95 97 98 98 97 96 95 94 93 91
77 81 85 85 84 82 82 84 86 88 89 87 86 85 84 81 78 76 75 75 76 77 78 78 76 72 68 63 60 58 58 59 58 57 57 60 66 73 80 82 83 83 81 79 76 74 74 75 76 77 76 78 79 79 79 79 79 79 78 78 78 79 80 83 85 87 88 87 88 89 90 91 92 93 94 96 97 96 95 92 88 86 84 83 82 82
86 87 88 87 84 81 80 81 84 86 87 87 86 84 82 81 79 78 76 77 78 80 81 79 76 73 69 66 63 62 62 62 62 62 64 68 74 79 83 84 84 82 78 74 73 73 75 77 78 79 78 80 80 81 80 80 79 78 78 79 81 82 82 85 87 88 88 87 88 88 90 91 92 93 93 93 91 88 85 82 80 80 79 79 80 82
94 93 90 85 82 80 79 78 79 82 85 87 86 83 79 79 79 79 78 80 81 82 81 78 76 74 73 70 68 67 67 68 69 70 74 78 80 81 84 84 82 78 72 69 69 71 73 77 79 81 82 82 82 81 80 80 79 78 79 81 82 83 84 87 88 88 88 87 87 88 89 89 89 89 88 87 85 83 82 82 84 86 88 88 88 89
96 93 87 83 81 80 80 78 77 79 83 86 86 85 83 81 80 80 82 83 83 82 80 77 76 76 75 74 73 71 71 73 74 74 75 78 79 80 83 82 77 71 66 64 62 61 63 67 72 77 81 82 81 80 79 78 78 78 79 81 82 84 86 87 88 87 87 86 87 88 88 88 87 86 86 86 86 87 87 88 90 92 92 91 90 90
91 87 84 83 82 81 80 78 78 80 84 86 87 87 86 85 85 85 85 83 82 80 78 77 77 78 78 77 76 74 73 75 75 75 74 75 77 79 80 76 71 65 59 57 55 54 56 60 67 75 78 79 78 77 76 76 76 78 80 81 83 85 87 87 87 86 85 85 86 88 88 87 87 86 87 88 90 91 92 93 93 92 90 89 89 88
90 87 84 83 81 80 80 80 81 84 86 89 89 88 88 86 85 85 85 82 80 78 77 78 78 79 80 79 78 76 76 77 78 79 78 79 79 78 75 71 66 60 54 54 54 55 57 61 68 74 75 74 74 74 73 75 76 78 80 82 84 86 87 86 86 86 86 87 87 87 86 86 86 86 87 87 90 92 94 94 93 91 90 90 90 90
90 89 88 86 85 84 84 85 85 85 85 85 84 81 78 79 80 82 83 83 82 81 80 80 80 80 81 81 80 79 78 80 82 84 83 80 77 74 72 70 65 59 55 57 60 62 64 68 71 73 72 70 70 70 71 74 77 79 81 83 85 87 88 87 86 87 87 87 88 88 88 87 87 87 89 89 92 94 94 94 92 91 91 90 90 92
91 90 92 88 84 81 81 79 77 74 72 73 74 75 76 79 82 85 87 87 85 83 81 81 81 81 82 82 81 80 79 81 84 84 83 79 76 74 74 69 63 58 58 63 65 67 69 71 72 72 70 69 69 70 72 75 78 81 82 84 85 87 88 87 87 87 87 85 85 86 87 88 89 89 92 93 94 93 92 92 91 91 92 90 92 95
90 88 85 79 75 72 72 72 72 71 70 72 75 78 80 82 84 87 88 86 84 83 83 83 82 81 80 78 78 78 78 80 81 80 78 77 77 75 72 66 61 60 62 65 67 68 69 70 70 70 69 68 68 70 74 77 79 81 83 84 86 87 87 87 87 86 85 84 84 84 84 86 88 90 90 92 92 90 89 90 90 91 91 92 93 93
91 88 86 81 77 74 74 74 74 75 75 77 80 83 85 85 86 87 87 87 87 86 86 85 82 78 74 72 73 74 75 78 78 78 78 79 78 74 68 64 63 63 63 64 64 65 67 68 69 69 68 67 69 72 76 79 80 82 84 85 86 87 86 85 83 82 81 82 83 84 85 87 89 91 92 91 91 90 89 89 89 90 90 93 93 90
93 90 87 84 80 78 77 76 77 78 79 81 83 85 86 87 88 89 90 90 89 86 84 82 79 75 71 69 70 72 73 76 78 80 83 80 76 70 64 63 64 65 62 63 63 65 67 68 67 67 67 69 71 74 77 80 81 83 85 85 85 84 82 81 80 80 81 83 84 84 85 87 88 90 91 90 91 91 90 91 91 90 90 92 92 91
91 89 87 85 82 80 78 77 78 79 81 84 86 87 87 89 90 91 92 92 89 86 83 81 78 75 70 67 67 70 73 78 82 86 86 79 72 66 63 64 65 65 64 63 63 64 66 67 67 68 69 70 73 76 79 82 83 84 84 83 81 79 78 77 78 80 81 83 84 85 86 88 88 89 91 90 90 90 90 90 91 92 92 91 91 91
91 90 90 88 85 82 79 81 84 86 86 87 87 88 90 92 92 92 91 90 89 88 85 81 78 75 72 69 71 74 78 84 89 91 86 76 69 64 63 65 66 65 64 63 64 65 66 67 68 70 71 72 75 78 81 83 83 83 81 78 76 76 76 77 78 79 81 82 83 85 86 87 88 89 91 90 90 89 89 89 89 90 92 93 93 92
93 91 89 85 82 80 80 82 83 84 85 87 90 92 94 94 93 92 91 91 90 89 88 85 82 79 77 75 76 80 87 92 93 91 83 75 68 64 63 64 65 65 65 63 63 64 64 66 69 70 71 73 76 79 82 82 81 79 77 76 75 75 76 76 77 78 80 81 82 84 85 86 87 89 91 92 91 91 90 89 90 92 94 93 92 89
89 87 87 87 87 86 86 86 86 86 87 89 93 96 96 95 93 91 89 88 88 88 88 87 85 82 82 82 85 90 95 96 93 88 81 75 69 64 62 63 64 64 62 61 60 61 63 66 67 69 70 73 77 79 81 79 78 76 76 76 76 76 77 76 77 78 80 81 83 84 85 87 89 91 92 92 92 92 93 93 93 94 94 93 92 91
88 86 85 86 87 88 88 87 87 88 90 93 96 98 98 95 92 90 88 87 86 85 84 85 87 89 93 95 97 98 98 95 89 83 81 76 69 62 59 61 63 62 61 60 60 61 64 66 68 70 72 75 77 78 78 78 78 78 77 78 78 78 78 78 78 79 80 81 82 84 86 88 90 92 93 93 94 95 95 95 95 95 95 95 93 92
87 87 87 87 87 88 88 88 87 87 87 90 94 96 96 95 94 93 93 93 93 94 95 96 97 97 97 96 96 96 94 88 83 80 82 75 67 60 58 61 64 65 62 62 62 64 66 68 69 71 72 74 76 77 76 75 75 75 76 77 78 78 78 78 78 79 80 82 83 85 87 90 91 93 94 94 95 95 95 96 96 96 96 95 95 94
85 86 86 86 85 85 86 86 86 86 87 88 90 90 91 93 95 97 98 98 98 98 98 97 96 95 94 93 93 90 86 81 78 78 79 73 66 61 61 64 66 66 64 64 65 66 67 68 68 69 71 72 73 73 72 72 72 74 75 76 77 78 79 79 80 80 82 84 85 87 90 91 92 94 95 95 95 96 96 96 96 96 96 96 95 94
86 87 88 87 87 87 88 89 90 92 94 95 97 97 97 97 98 99 99 98 98 98 98 97 96 95 93 91 87 82 78 75 75 75 77 71 66 64 64 67 68 68 67 66 66 66 66 66 67 68 69 69 69 69 69 70 72 74 76 77 78 79 79 79 79 80 82 85 86 88 91 92 94 95 96 96 96 96 96 96 96 96 96 95 94 94
87 89 90 92 94 95 97 97 98 98 99 100 100 100 100 100 99 99 99 99 98 98 98 96 94 91 89 86 83 79 76 74 73 74 76 73 69 67 66 69 70 70 69 68 66 66 66 67 67 66 66 66 66 67 68 69 72 74 76 76 76 76 76 76 77 78 81 85 87 89 91 93 95 95 96 96 97 97 97 97 97 97 96 95 95 94
83 87 91 95 98 99 99 98 96 95 94 94 95 96 99 99 99 98 99 98 98 98 97 93 89 86 85 85 84 81 77 75 74 74 75 75 74 72 69 70 71 71 70 68 67 66 67 67 66 65 64 64 65 66 68 69 70 71 72 73 73 72 71 71 72 75 80 83 86 88 90 93 95 95 96 96 96 97 97 97 97 97 95 95 94 94
86 91 95 96 97 97 96 94 90 86 82 80 83 88 95 97 98 98 98 98 98 97 97 91 88 87 87 86 84 81 77 75 74 73 75 77 77 74 70 71 72 72 70 68 67 67 67 65 64 63 63 64 65 66 67 69 69 70 69 70 69 68 66 66 69 72 77 81 84 86 88 90 93 95 95 96 96 96 97 97 97 96 95 95 95 95
94 95 93 90 89 88 87 83 78 74 71 72 78 86 94 96 98 98 98 98 98 97 96 93 92 90 89 86 84 81 77 74 72 73 75 79 77 73 71 73 73 72 71 70 69 67 64 62 61 61 62 64 65 66 66 67 68 67 67 66 65 63 62 64 67 72 76 79 82 84 86 88 90 92 95 95 96 96 96 96 96 96 95 95 95 96
95 91 86 83 81 79 76 71 68 65 64 68 76 85 94 95 95 95 96 97 97 97 96 95 94 92 88 84 82 79 76 70 70 73 77 80 77 73 73 74 74 73 73 73 70 67 63 61 61 62 64 65 66 66 66 66 66 66 65 64 62 61 60 62 66 70 73 76 79 81 83 85 86 88 92 95 95 96 96 96 96 95 96 96 96 96
92 86 83 81 79 77 73 69 65 62 61 64 71 80 88 92 93 93 94 96 97 97 96 95 93 90 87 81 78 74 71 68 69 74 81 83 80 77 77 76 75 75 76 78 75 70 66 63 62 63 65 66 66 66 66 66 65 64 64 64 63 61 60 62 65 68 70 73 75 78 79 81 83 86 90 92 94 95 96 96 95 95 95 96 96 96
87 83 80 78 77 75 72 69 66 63 60 62 66 73 83 90 94 95 95 96 97 97 96 92 89 87 87 83 78 74 71 70 72 77 87 87 84 81 81 80 78 77 77 80 80 77 72 67 65 65 66 67 66 66 66 66 65 64 65 65 65 64 62 63 66 68 70 72 74 76 78 80 83 85 89 91 93 94 95 95 95 95 95 96 96 96
83 80 77 75 74 72 71 69 66 63 60 60 63 70 79 89 95 97 97 97 97 95 90 86 85 86 88 89 87 83 79 77 78 83 92 91 88 85 83 82 80 78 78 79 79 78 74 70 68 67 67 67 67 67 67 66 64 64 65 67 67 66 65 66 68 70 72 74 75 77 78 81 83 86 89 91 92 94 94 95 95 96 96 95 95 96
82 79 77 75 73 70 69 67 64 62 58 58 62 70 80 90 95 97 97 97 95 91 85 83 84 86 90 93 93 90 85 82 82 86 91 92 91 89 86 84 81 80 79 78 76 74 72 71 70 70 69 69 68 68 67 65 64 65 67 69 69 69 68 69 71 73 75 76 78 79 80 82 84 86 88 89 90 92 93 94 95 95 96 95 95 96
86 84 82 78 75 71 69 67 64 62 61 63 68 75 84 92 95 97 97 96 93 89 86 87 88 88 89 92 91 88 87 84 84 85 86 88 90 91 88 84 83 83 83 79 76 73 71 71 71 71 71 70 68 67 65 64 65 67 69 70 70 70 70 72 74 76 77 78 79 81 83 84 86 87 88 88 89 90 92 93 94 94 95 95 96 96
91 90 88 84 81 78 78 76 74 72 72 74 78 83 89 94 96 96 96 95 91 89 90 92 91 89 87 87 88 89 89 85 82 81 80 82 86 90 91 89 89 90 88 81 77 74 74 74 73 72 72 70 68 66 65 65 67 69 69 69 70 71 73 74 76 77 78 79 80 82 84 86 87 88 88 88 89 90 91 92 92 92 93 94 95 96
94 94 94 91 89 88 90 89 88 87 87 88 89 90 92 95 96 96 95 94 92 91 92 91 89 86 83 83 84 85 85 83 80 77 76 77 81 86 92 93 93 93 91 84 80 78 78 76 75 73 72 70 68 67 67 68 69 70 70 70 71 73 74 74 75 77 79 80 81 83 85 86 87 88 88 88 89 90 90 90 90 90 91 92 94 94
96 96 95 95 94 94 95 95 95 95 95 95 95 95 95 96 96 96 95 92 91 90 89 87 85 82 81 80 80 80 81 80 78 76 75 76 78 81 87 91 92 92 91 87 85 83 81 79 76 73 71 70 70 70 70 70 70 71 71 73 74 74 73 73 75 77 79 80 82 83 84 85 86 87 88 88 89 90 90 91 90 90 91 92 93 94
96 95 94 95 95 96 96 96 96 96 96 96 95 95 96 96 96 95 93 91 90 89 87 86 84 82 80 78 79 79 80 79 78 77 76 77 77 78 81 86 89 90 89 88 88 87 85 81 79 76 74 73 72 72 71 72 72 73 74 75 74 72 70 72 75 77 79 80 81 82 82 84 85 87 88 88 89 90 91 91 91 91 91 92 93 94
90 90 91 93 95 95 95 96 96 96 96 96 95 95 95 96 95 94 91 90 89 88 86 85 83 81 79 78 78 78 79 78 78 78 77 76 75 74 75 78 81 84 86 87 87 88 87 84 81 80 78 76 75 74 74 73 74 76 78 77 74 71 71 74 76 78 79 80 81 82 83 85 86 88 88 89 90 91 92 92 91 91 92 93 94 95
87 87 88 92 94 95 95 95 95 95 95 96 95 95 95 95 95 93 90 89 88 87 86 85 83 80 78 76 76 75 75 75 76 77 75 73 71 70 69 71 74 77 79 82 84 86 88 86 84 82 79 78 76 76 76 76 77 79 81 78 76 74 75 76 77 77 78 79 80 82 85 87 88 89 90 91 91 92 92 92 92 93 93 94 95 96
88 89 91 94 95 95 95 95 95 95 95 95 95 95 95 95 94 91 89 88 88 88 87 85 82 79 76 74 72 71 71 72 73 73 71 69 67 66 67 69 71 74 75 78 81 83 85 85 83 81 79 78 78 78 78 78 79 80 80 79 78 78 78 75 75 75 77 79 82 84 87 88 90 91 91 92 92 93 92 92 93 94 95 95 96 96
91 93 95 95 95 95 95 95 95 95 95 95 95 95 95 95 94 91 88 89 89 89 87 84 81 78 76 75 73 72 70 70 70 70 68 66 65 66 67 70 72 73 74 76 79 81 80 80 79 78 78 79 81 82 81 81 80 78 77 78 79 79 76 74 74 76 79 81 84 86 88 90 91 92 92 92 92 91 91 92 93 94 95 95 96 96
92 94 94 95 95 94 95 95 95 95 95 95 95 95 95 95 94 92 90 91 91 89 86 82 78 76 75 76 76 75 71 69 68 68 68 67 67 68 70 71 73 74 75 75 78 80 79 79 79 78 79 82 84 85 84 83 81 79 78 78 78 78 77 77 78 80 82 83 85 87 89 91 92 93 93 92 91 91 91 92 92 93 94 95 96 96
93 94 95 95 95 95 96 96 96 95 95 95 95 95 95 95 94 92 92 92 90 87 82 78 77 76 78 77 77 76 74 71 69 68 68 68 69 71 73 75 76 76 75 75 77 80 82 83 82 82 83 85 86 87 86 83 81 78 76 75 76 78 78 79 80 81 83 85 87 88 90 92 93 93 93 92 91 91 91 92 93 94 95 96 96 96
94 95 95 95 96 96 96 96 96 96 95 95 95 95 95 95 93 93 93 91 88 83 79 77 78 79 81 80 79 77 76 74 72 69 67 66 67 69 72 74 75 75 74 74 75 77 81 84 86 86 87 87 86 85 83 81 79 78 77 76 77 78 78 78 80 81 84 87 88 90 91 93 93 93 92 91 91 91 90 91 93 95 96 97 97 97
95 94 95 95 96 96 96 96 96 96 95 95 95 95 95 95 94 93 92 89 85 81 78 78 79 80 81 80 79 78 79 80 78 74 69 66 65 65 67 69 70 70 72 73 75 77 79 81 83 85 87 86 84 81 78 78 79 80 80 79 79 79 79 79 80 82 85 88 90 91 92 93 93 93 92 92 91 90 89 89 91 93 95 97 97 97
94 94 95 96 96 96 96 96 96 96 96 95 96 96 95 95 94 93 91 87 84 81 79 79 80 80 79 77 77 78 81 82 80 76 72 71 71 72 70 69 70 72 75 77 78 78 77 75 74 74 77 80 81 81 79 79 80 81 80 80 79 79 79 80 81 83 86 88 90 92 93 93 93 93 93 93 91 90 88 88 88 90 94 96 97 97
95 96 96 96 96 96 96 96 96 96 96 96 96 95 95 93 92 91 90 87 84 81 80 80 80 79 77 75 76 79 83 82 78 74 73 76 78 78 74 72 74 77 78 79 78 77 75 71 66 63 67 74 79 83 85 83 81 79 78 78 78 78 79 80 82 85 87 89 91 92 93 93 93 93 93 94 92 90 88 87 87 89 92 95 97 97
96 96 96 96 96 96 96 96 96 96 96 96 95 95 92 90 89 89 88 86 83 81 79 79 78 77 76 77 79 83 85 82 77 74 76 79 79 76 72 73 75 77 78 77 76 74 73 70 63 59 62 70 77 83 86 82 78 76 75 75 76 78 79 82 84 87 89 91 92 92 93 94 94 94 93 93 92 90 88 87 87 89 91 95 97 98
96 96 96 96 96 96 96 96 95 95 95 95 95 92 88 87 87 87 87 85 83 80 79 79 78 78 77 80 83 86 86 83 79 76 78 78 76 73 71 74 77 78 77 76 74 72 69 67 64 61 61 66 72 76 77 76 76 75 75 75 76 79 82 85 87 89 91 92 92 92 93 93 94 94 95 95 92 90 87 87 88 90 93 95 97 98
Wind_Speed
17 17 18 18 19 19 20 21 20 19 20 20 20 20 20 19 18 16 16 16 16 17 18 19 20 21 22 21 20 19 17 16 15 15 15 16 17 18 19 20 20 21 21 21 22 23 23 24 25 26 27 27 28 28 27 27 26 26 26 26 26 26 26 26 26 26 26 26 27 27 27 27 27 28 28 29 29 29 30 30 30 30 29 29 28 28
17 17 18 18 19 19 20 21 20 19 20 20 21 20 20 19 18 17 17 17 17 18 19 20 21 22 23 23 22 20 18 17 16 15 16 17 18 19 19 20 20 21 21 21 22 23 24 25 26 27 28 28 28 27 27 26 26 25 25 25 25 25 25 25 25 26 26 26 26 26 26 27 27 27 27 28 28 28 29 30 30 30 30 30 30 30
17 18 18 18 19 19 19 20 21 20 20 20 20 20 20 19 19 18 17 17 18 19 19 20 21 22 23 23 23 21 19 17 16 16 16 17 18 19 19 20 20 20 21 21 22 23 24 25 26 27 28 28 27 26 26 25 25 25 25 25 25 25 25 25 25 25 25 25 26 26 26 26 26 27 27 27 27 27 28 28 29 29 30 30 30 31
18 17 18 19 19 19 20 20 21 21 21 21 21 21 20 20 20 19 18 18 18 19 20 21 21 23 24 24 23 21 19 17 16 16 16 17 17 18 19 19 20 20 21 22 22 24 25 26 27 27 27 27 26 25 25 25 25 25 25 25 25 25 25 25 25 25 25 25 25 25 25 25 26 26 26 26 26 27 27 27 27 28 28 28 29 29
17 17 17 17 17 18 19 20 21 21 21 21 21 21 21 20 20 19 19 18 19 19 20 21 22 23 24 24 23 22 19 18 17 16 16 16 17 17 18 19 19 20 21 22 23 24 26 27 27 27 26 26 25 24 24 24 24 24 24 24 25 25 25 25 25 24 25 25 25 25 25 25 25 25 26 26 26 26 26 26 26 26 25 26 26 26
17 17 17 16 16 16 17 18 19 19 19 20 21 21 21 21 20 20 19 19 19 20 20 21 22 23 24 24 23 22 19 18 17 17 16 16 16 17 18 18 19 20 21 22 23 25 26 27 27 26 25 24 24 24 24 24 24 24 24 24 25 25 25 24 24 24 24 25 25 25 25 25 25 25 26 26 26 26 26 25 25 25 25 25 25 26
17 16 16 16 16 17 17 17 17 17 17 18 19 19 20 21 20 20 20 19 19 20 20 21 22 23 24 24 23 21 20 19 18 17 17 16 17 17 18 18 19 20 21 22 24 25 26 26 26 25 24 23 23 23 24 24 24 24 24 24 24 24 24 24 24 24 24 25 25 25 25 25 25 26 26 26 26 26 26 26 26 26 26 26 26 27
16 16 15 15 16 17 17 17 17 16 16 17 17 17 18 18 18 19 20 20 20 20 20 20 21 21 23 23 23 21 20 19 19 18 17 16 17 17 17 18 19 20 21 23 25 26 26 25 24 23 23 23 23 23 23 24 24 24 24 25 24 24 24 24 24 24 25 25 25 25 25 25 26 26 26 26 26 26 26 26 26 26 26 26 26 27
15 16 16 16 16 16 17 18 17 16 16 16 16 16 17 16 17 17 19 19 20 20 19 18 18 19 20 22 22 21 20 18 17 16 16 16 16 16 17 18 19 21 23 25 26 26 25 24 23 22 22 22 23 23 23 24 24 24 25 24 24 24 24 24 24 25 25 25 25 25 25 26 25 25 25 25 25 25 25 25 26 26 26 26 26 27
15 15 16 16 16 16 16 18 18 16 15 16 17 17 17 17 18 17 17 16 17 18 18 17 17 17 18 19 19 19 18 17 16 16 16 16 16 17 18 19 21 23 25 26 26 25 24 22 21 21 22 22 22 23 23 24 24 24 24 24 24 24 24 24 25 25 25 25 25 25 26 26 26 25 25 25 25 25 25 26 26 26 26 26 27 27
15 16 16 16 16 16 16 17 17 17 17 18 19 20 19 19 19 18 17 16 16 15 15 15 16 17 18 17 17 17 16 16 16 17 17 17 17 19 20 21 23 26 27 27 25 24 22 21 21 21 21 22 22 23 24 24 24 24 24 24 23 24 24 24 25 25 25 25 25 25 26 26 25 25 25 25 25 25 26 26 26 26 26 26 27 27
15 15 16 16 17 17 17 17 17 17 17 16 17 17 17 18 18 18 17 17 17 16 16 16 16 17 17 17 17 16 15 16 16 17 18 19 19 20 21 23 25 27 27 26 24 23 22 21 21 20 21 22 22 23 24 24 24 24 23 23 24 24 24 24 24 25 25 25 25 26 25 25 25 25 25 25 26 26 26 26 26 26 27 27 27 27
15 15 15 16 17 17 16 16 16 15 14 13 14 15 16 17 18 17 17 17 17 17 18 17 17 17 17 17 17 16 15 15 15 17 19 19 19 20 21 23 25 26 25 23 22 21 20 20 20 20 21 22 23 23 24 24 23 23 23 23 24 24 24 24 24 25 25 25 25 25 25 25 25 25 25 25 26 26 26 26 27 27 28 28 28 27
14 14 14 15 16 16 15 15 15 15 15 16 16 17 19 19 19 18 18 18 18 18 18 17 17 17 16 16 16 16 16 15 16 17 17 17 18 20 22 23 24 23 22 20 19 19 18 18 19 19 21 22 23 23 23 23 22 22 23 23 23 24 24 24 25 25 25 25 25 25 25 25 25 25 25 25 26 26 26 26 27 27 28 28 28 27
14 14 15 16 16 17 16 16 17 18 18 19 19 20 21 20 19 18 17 17 18 18 17 17 17 17 16 15 15 15 16 16 15 15 16 17 20 21 22 22 22 20 19 17 17 18 18 18 18 19 20 21 22 22 22 22 22 22 23 23 23 24 24 24 25 25 25 25 25 25 25 25 25 25 25 25 26 26 26 26 27 28 28 28 27 27
15 15 15 16 17 18 18 18 18 19 20 20 20 19 19 19 18 17 17 17 16 16 14 14 15 15 15 15 14 15 15 15 14 14 15 17 19 21 21 19 18 17 17 16 17 18 18 17 18 18 19 21 22 22 22 22 22 22 23 23 23 24 24 24 25 25 25 25 25 25 25 25 25 25 25 25 26 26 26 26 27 27 28 28 28 28
15 15 15 16 17 18 18 18 19 19 20 20 19 19 19 19 19 18 18 16 15 15 14 13 12 11 12 14 14 13 14 14 14 14 14 16 18 19 18 17 16 17 17 17 17 17 17 17 17 18 19 21 21 22 22 22 22 22 22 23 23 24 24 24 25 25 25 25 25 25 25 25 25 25 25 25 25 26 26 26 27 27 27 28 28 28
15 16 16 16 17 18 19 20 20 20 20 19 19 20 21 21 20 19 17 16 15 15 14 14 13 11 11 13 13 13 14 14 13 13 14 16 18 18 17 16 16 16 17 17 17 17 16 17 17 19 20 21 21 21 21 21 21 22 22 23 23 24 24 24 25 25 25 25 25 25 24 25 25 25 25 25 26 26 26 26 27 27 27 27 27 28
16 16 16 16 17 19 20 19 19 19 19 19 19 19 20 19 18 17 17 16 15 14 15 15 16 16 16 16 15 14 15 14 13 12 13 15 17 17 16 15 15 15 16 16 16 16 16 17 18 19 20 21 21 21 21 21 21 22 22 23 23 24 24 24 25 25 25 25 24 24 24 24 25 25 25 25 26 26 26 26 27 27 27 27 27 28
18 18 18 18 19 20 20 19 19 18 18 18 19 20 19 18 17 17 17 16 15 15 16 16 17 18 19 18 17 15 14 14 12 11 12 14 16 16 15 13 13 14 15 16 17 17 16 17 18 19 20 20 20 20 20 20 21 22 22 23 23 24 24 24 24 25 25 24 24 24 24 24 25 25 25 26 26 26 26 26 27 27 27 27 28 28
19 19 19 18 18 19 19 18 18 18 19 20 20 19 18 18 17 17 17 17 17 17 17 17 18 19 18 17 15 14 14 13 11 10 11 13 15 15 14 12 12 14 16 17 17 17 17 17 18 18 19 19 19 19 20 20 21 22 22 23 24 24 24 24 24 24 24 24 24 24 24 24 25 25 25 26 26 26 26 26 26 27 27 27 28 28
20 21 21 21 20 20 20 21 21 21 21 21 20 19 18 18 18 18 18 19 18 18 18 17 17 16 15 14 15 16 16 13 11 10 10 11 14 15 13 12 13 15 17 18 18 18 18 18 18 18 18 18 19 19 20 20 21 22 23 23 24 24 24 24 24 24 24 24 24 24 24 24 25 25 25 25 25 26 26 26 26 27 27 27 28 28
24 25 26 25 24 24 24 24 24 24 23 23 22 21 20 20 20 20 20 20 18 17 16 15 16 17 18 19 18 17 15 13 11 9 8 9 12 14 13 13 13 15 17 18 18 18 18 18 17 17 17 17 18 18 19 20 21 22 23 23 24 24 24 24 24 24 24 24 23 23 24 24 24 25 25 25 25 25 25 26 26 27 27 27 28 29
27 27 28 27 26 26 25 25 26 26 25 25 25 25 25 25 26 27 26 23 20 19 18 19 19 19 19 18 17 15 13 12 10 8 7 9 12 14 13 13 14 15 17 18 18 18 18 18 18 17 17 17 17 18 19 20 21 22 23 24 24 24 24 24 24 24 24 24 24 24 24 24 24 24 24 24 24 25 25 25 26 26 27 28 28 29
26 27 28 28 27 26 25 26 26 26 26 26 26 25 25 25 26 26 24 23 21 20 19 17 14 13 14 13 13 12 12 10 8 7 7 9 12 13 13 13 13 15 17 18 18 18 18 18 18 17 17 17 18 19 20 20 21 22 23 23 24 24 24 24 24 24 24 24 24 23 23 23 23 23 24 24 24 24 25 25 25 26 27 28 28 29
25 27 28 28 27 26 25 24 24 25 25 24 23 23 23 22 21 19 18 18 18 16 14 11 9 9 10 10 9 10 10 9 8 8 8 8 10 12 13 12 13 15 17 18 18 18 18 18 18 18 17 17 18 19 20 21 21 22 23 23 23 23 23 24 24 24 24 24 23 23 23 23 23 23 23 23 24 24 24 25 25 26 27 28 28 28
25 27 27 27 26 25 25 24 23 23 23 24 23 22 21 21 20 17 14 15 15 13 10 9 9 8 7 6 6 8 9 9 8 8 8 8 10 11 13 13 13 15 17 18 18 18 18 18 18 18 17 17 18 19 20 21 22 22 23 23 23 23 23 23 24 24 23 23 23 22 22 22 22 23 23 23 23 24 24 24 25 26 27 27 26 26
24 24 24 23 23 22 22 22 21 21 22 22 21 21 20 20 18 15 13 14 14 13 11 10 8 6 4 4 6 9 10 9 7 6 7 7 8 10 12 12 13 14 16 18 19 19 18 17 16 16 16 17 18 19 20 21 22 23 23 22 22 23 24 24 24 24 23 23 22 21 21 21 21 22 23 23 23 24 24 24 25 26 26 25 25 24
18 16 16 17 18 18 17 17 18 18 19 19 18 17 17 17 16 15 15 16 15 12 10 8 6 4 4 5 7 8 9 7 4 4 6 7 8 10 11 12 13 14 15 17 19 19 17 16 15 15 15 17 19 20 20 21 22 22 22 23 23 24 24 24 24 24 23 22 22 21 21 21 21 22 22 23 23 23 24 24 25 25 25 24 24 24
12 12 14 16 17 18 18 18 18 18 18 18 17 17 16 16 16 16 16 16 15 12 10 8 6 5 5 5 5 5 4 3 2 3 7 8 8 10 12 12 13 14 14 15 14 14 16 17 16 15 15 17 19 20 20 20 20 20 21 23 24 25 25 25 25 24 24 23 22 21 21 21 21 21 22 22 23 23 23 24 24 24 24 24 24 24
14 16 18 19 20 20 19 18 17 17 18 18 18 18 18 18 17 16 15 14 14 13 11 9 7 6 5 3 2 2 1 1 3 7 9 8 8 10 11 12 13 13 13 12 9 7 10 15 18 18 18 19 20 20 19 19 19 20 20 22 24 25 25 25 25 25 24 23 23 22 22 22 22 22 22 22 22 23 23 23 24 23 23 23 24 24
18 20 21 21 21 20 18 17 17 17 18 18 19 19 19 18 17 15 13 13 13 12 11 9 7 7 6 4 3 3 3 5 8 9 8 7 8 10 10 11 12 13 12 11 9 7 6 10 17 21 21 21 20 20 19 19 19 19 19 21 22 24 25 25 25 25 25 24 24 24 24 23 22 22 22 22 22 22 23 23 24 24 24 24 24 24
20 21 21 20 19 18 18 17 17 17 18 18 19 19 19 18 16 15 13 12 11 10 8 7 7 7 7 6 6 6 6 8 8 8 7 7 8 9 9 10 12 13 13 12 12 11 9 12 16 21 22 22 21 20 19 19 18 18 19 20 21 23 25 25 25 25 24 24 25 25 25 24 23 22 22 22 22 23 23 24 24 25 24 24 24 24
19 19 18 18 17 17 17 17 17 17 17 18 18 18 18 17 16 14 13 11 9 8 6 5 5 6 6 6 6 6 7 8 8 8 8 8 7 8 9 10 11 12 13 13 13 14 14 15 17 18 20 22 22 20 18 17 18 18 18 19 19 21 23 24 24 23 24 24 25 25 25 24 23 22 22 22 23 23 24 25 26 26 25 24 24 23
17 17 17 17 17 17 17 16 16 16 17 17 17 17 16 15 14 13 11 9 8 6 5 5 5 5 5 5 6 6 7 9 9 9 9 9 8 8 9 10 11 11 12 13 14 14 13 15 17 18 18 20 21 20 19 17 17 18 19 19 19 19 21 22 22 22 23 23 23 23 23 22 22 22 23 23 24 25 26 27 27 26 25 24 23 23
15 15 15 16 16 16 16 16 16 16 17 17 17 17 16 14 12 11 9 8 6 5 5 4 4 5 6 6 7 8 9 10 10 9 9 9 9 9 9 10 10 11 12 13 14 14 14 15 17 18 18 18 18 19 20 19 19 19 19 20 20 20 20 21 21 21 21 22 22 22 22 21 22 23 24 25 27 27 28 27 27 26 25 24 23 22
13 13 13 15 15 16 15 16 16 17 17 18 18 17 16 14 11 8 7 7 5 5 4 4 4 5 6 7 8 9 10 10 10 9 9 9 10 10 10 11 11 12 11 12 13 14 14 15 16 17 17 16 16 17 19 21 21 20 20 21 21 20 20 20 19 19 20 20 21 21 21 21 22 23 25 27 28 28 27 27 26 25 25 24 23 22
11 12 13 13 14 15 14 15 15 16 17 18 18 17 16 13 9 6 6 5 5 4 4 4 4 5 6 8 9 9 10 10 9 9 9 9 10 11 12 12 13 13 12 12 13 14 14 14 13 13 14 16 17 18 20 20 20 20 21 21 21 20 19 18 19 19 19 20 21 21 21 22 22 24 25 26 26 26 25 25 25 25 25 24 23 23
11 12 12 13 13 13 13 14 15 16 17 18 17 16 14 11 7 5 5 5 4 4 3 4 4 5 7 8 8 9 9 9 9 9 9 9 10 11 12 13 13 13 14 14 15 14 14 14 13 13 13 15 18 19 20 19 19 19 20 22 21 20 18 18 19 19 20 20 20 21 22 23 23 23 23 24 24 24 24 25 25 25 25 24 24 23
12 12 13 13 13 13 14 14 15 16 17 17 16 14 12 8 5 4 5 5 4 3 3 3 4 5 6 7 8 8 8 8 9 9 9 10 11 11 12 13 13 14 14 15 16 15 14 14 15 16 16 16 17 18 19 19 18 18 19 19 19 19 20 21 20 20 19 19 20 21 22 23 23 23 23 23 23 24 24 24 25 25 25 24 23 22
12 13 13 13 14 14 14 14 15 15 15 15 14 12 9 6 4 5 5 4 3 3 3 3 5 6 7 8 8 8 8 8 9 9 10 11 11 12 12 13 13 14 15 15 16 15 14 14 15 16 17 17 17 18 19 19 18 18 17 17 18 20 22 22 20 19 18 19 21 21 22 23 23 23 24 24 25 25 24 24 25 25 25 24 23 22
13 13 14 14 15 15 15 14 14 14 14 13 12 10 6 3 4 5 5 4 2 2 3 4 5 7 8 9 9 9 8 8 8 9 10 11 11 12 12 13 13 14 15 16 16 16 15 15 15 16 16 16 16 16 17 18 18 17 16 16 18 20 21 21 19 18 19 21 22 23 23 23 23 24 25 25 26 25 25 25 25 25 24 24 23 23
14 14 15 15 15 15 14 13 12 13 14 13 12 8 4 2 5 5 4 3 2 2 3 4 6 8 9 10 10 10 9 8 8 8 9 10 11 11 12 12 13 14 15 17 17 16 16 16 16 15 15 14 14 14 16 17 17 17 16 16 16 16 16 18 20 21 22 22 23 23 23 23 24 25 26 26 26 26 26 26 25 24 24 24 24 25
17 17 17 16 15 14 13 12 12 13 14 13 10 6 1 3 5 5 3 2 2 2 3 5 7 9 9 10 10 11 11 9 8 8 8 9 10 11 11 12 13 14 15 17 17 17 17 16 16 15 14 13 13 13 14 15 16 16 16 16 15 15 15 18 20 22 23 24 24 24 24 24 25 25 26 25 25 25 25 25 25 25 26 25 25 25
17 17 15 14 13 12 10 11 12 14 13 11 7 3 1 3 4 4 3 2 2 2 3 5 7 8 8 9 11 12 12 11 9 9 8 9 9 10 11 12 14 15 17 19 19 18 16 15 15 15 14 13 12 12 13 14 15 15 16 17 17 17 17 19 20 21 21 23 24 25 25 25 25 25 25 25 25 25 25 25 25 25 26 26 25 25
15 14 12 12 11 11 11 12 14 14 11 7 4 1 3 4 4 3 2 1 1 2 3 6 7 7 7 9 10 12 12 12 12 12 12 11 11 12 12 14 15 18 19 20 19 18 17 15 15 15 15 13 12 12 12 12 13 15 17 18 18 18 18 19 20 21 21 22 23 25 26 26 25 24 23 23 25 26 26 26 25 25 25 25 25 25
13 12 12 12 12 12 13 14 14 12 8 4 1 2 4 4 3 3 2 1 2 3 4 6 7 8 8 9 10 11 11 11 12 13 15 15 16 16 17 18 20 21 20 19 17 16 15 15 15 14 13 12 11 11 12 12 13 14 16 17 17 18 18 19 21 22 22 22 23 25 27 26 24 23 22 23 24 25 26 26 26 25 25 25 25 25
12 13 13 13 13 13 13 14 12 9 5 1 1 3 4 3 3 2 2 1 2 3 4 6 8 9 9 9 9 9 10 10 11 13 15 16 17 18 21 23 24 22 19 17 15 14 14 13 11 11 11 11 10 10 11 13 14 14 15 16 16 17 18 19 21 22 23 23 24 26 26 24 23 22 23 23 22 22 24 25 26 26 26 26 25 25
12 13 13 14 14 13 13 12 10 6 3 1 2 3 3 2 2 1 1 2 2 3 5 7 8 9 9 9 9 9 10 11 12 13 14 14 15 18 21 24 24 21 17 15 14 13 13 12 10 7 5 7 8 10 11 13 14 15 15 15 15 16 17 19 21 22 23 24 26 26 25 23 22 22 21 19 19 20 22 23 24 25 26 26 25 24
12 12 13 13 13 13 12 10 7 4 1 2 2 2 1 1 1 2 2 2 2 4 6 7 8 8 8 8 9 9 10 12 13 13 13 13 15 18 22 23 22 20 17 15 13 12 12 11 10 8 6 5 6 8 11 13 15 15 15 15 15 15 16 18 20 22 23 24 26 26 25 24 23 21 19 17 17 18 19 21 22 24 25 25 25 24
11 12 12 13 14 13 10 7 3 0 2 3 2 2 1 2 2 2 2 2 3 4 6 7 8 7 7 8 9 9 11 12 12 12 12 14 16 19 22 22 20 19 17 16 15 14 12 10 9 8 7 6 5 7 10 12 14 15 15 15 16 16 17 18 20 22 24 24 25 25 24 23 22 20 18 16 16 16 17 18 20 22 24 24 24 23
Wind_Direction
288 288 288 288 289 290 292 294 296 298 301 303 306 309 312 313 312 312 314 317 319 321 322 323 324 325 325 325 323 321 317 313 310 309 310 312 313 313 312 313 313 313 314 314 314 314 314 314 315 315 316 316 316 316 316 315 315 315 315 315 315 316 316 316 315 314 313 312 311 310 309 309 307 306 304 303 303 302 302 303 303 304 304 304 304 303
289 288 287 288 289 290 290 293 295 296 298 301 303 306 309 309 309 310 312 314 316 318 319 321 322 323 323 322 321 319 316 312 309 308 310 312 312 311 311 311 312 312 312 313 313 314 314 315 315 315 315 315 315 315 315 316 316 316 315 316 316 316 316 316 315 314 313 312 311 311 310 309 309 308 306 305 304 302 301 300 300 299 299 299 299 298
288 288 287 288 288 288 288 291 294 296 297 298 300 302 304 303 303 304 306 309 311 314 315 317 318 319 319 320 319 317 314 311 309 309 310 311 311 310 310 310 310 310 311 312 312 313 314 315 316 316 316 315 315 315 315 316 316 316 316 316 316 316 316 315 315 314 313 312 312 311 310 310 309 309 308 307 305 303 301 300 298 297 296 296 295 295
288 288 288 290 290 289 288 290 293 296 297 297 297 298 299 298 297 298 301 303 306 308 310 312 314 315 316 317 316 315 313 310 308 309 311 311 310 309 308 309 309 310 310 311 312 313 314 315 316 316 316 316 315 315 315 315 316 316 316 316 316 316 316 316 315 315 314 313 312 311 311 310 309 309 308 306 305 303 301 299 297 296 295 294 294 294
287 288 289 292 293 292 291 292 294 296 296 295 294 295 295 294 294 295 297 299 301 302 304 307 309 312 313 314 314 313 311 309 308 309 310 310 310 308 308 308 308 309 310 311 312 313 314 315 315 316 316 315 315 316 316 316 316 316 316 316 316 316 316 316 316 315 314 313 312 312 311 310 309 309 308 306 304 303 301 300 299 299 298 298 299 298
285 286 289 291 293 293 293 294 294 294 294 293 293 292 292 292 292 293 294 295 297 298 299 302 305 308 310 311 312 311 309 308 307 308 310 310 310 309 307 306 307 308 309 310 311 313 314 314 315 315 315 315 315 316 316 316 316 316 316 316 317 317 316 316 315 314 314 313 313 312 312 311 310 309 308 307 307 307 308 309 309 309 309 308 307 306
285 287 290 292 293 294 294 293 292 292 292 292 292 291 291 291 292 292 293 293 293 294 295 297 301 305 308 310 310 310 308 308 308 309 310 311 310 308 306 306 306 307 308 309 311 312 313 314 314 315 315 315 315 315 316 316 316 316 316 316 316 316 316 315 314 314 314 314 314 313 313 312 311 311 310 311 312 313 314 315 314 313 311 310 308 306
285 288 292 294 295 296 295 293 291 290 290 290 291 292 291 290 290 292 294 293 291 290 291 294 298 302 305 307 308 308 307 308 308 309 309 309 308 306 305 305 305 306 307 309 310 311 312 313 313 314 314 315 315 315 315 315 315 316 316 316 316 316 315 314 314 314 314 314 314 313 313 312 312 312 312 313 314 314 313 312 310 309 307 305 304 303
281 288 291 292 293 295 296 295 293 291 290 288 288 290 292 291 291 291 293 291 288 287 289 292 294 297 300 303 305 305 305 304 305 304 302 301 301 302 301 302 303 304 306 308 310 311 312 312 313 313 313 314 314 314 314 315 315 315 315 316 316 315 314 314 313 314 314 314 314 313 312 312 312 312 312 312 312 310 309 308 306 306 305 304 304 303
279 285 290 291 291 291 292 294 295 294 291 289 287 285 285 287 290 291 290 287 286 286 287 289 291 294 296 298 300 301 301 299 299 298 297 295 295 295 295 297 300 303 306 308 310 311 312 313 313 313 313 313 313 314 314 314 314 315 315 315 315 315 314 313 313 314 314 313 313 313 312 312 312 312 311 310 309 308 307 307 307 306 307 306 305 305
283 286 289 291 292 290 288 290 293 295 294 291 288 285 282 281 283 286 287 288 287 287 287 287 289 292 293 294 295 296 296 295 295 297 299 297 295 292 291 293 298 303 307 309 311 313 315 315 314 313 313 313 313 313 313 313 314 314 315 315 314 314 313 313 313 314 314 313 313 313 312 312 312 311 310 309 309 308 308 308 308 308 308 307 306 304
284 287 289 291 292 293 292 292 292 293 292 289 288 287 284 283 284 283 282 286 287 288 290 290 290 289 289 289 291 292 291 290 292 295 297 296 294 292 292 296 302 307 310 312 313 314 316 316 314 313 312 313 312 312 313 313 314 314 314 314 313 313 313 313 314 314 314 314 313 313 312 311 311 310 310 310 309 309 310 310 310 310 308 307 305 304
283 285 286 289 291 291 290 291 292 292 289 286 287 289 291 292 291 287 282 280 282 286 290 292 291 290 287 286 287 288 288 287 287 289 290 291 290 290 295 301 306 309 311 311 311 312 313 313 312 311 311 312 313 313 313 314 314 314 314 314 313 313 314 314 314 314 314 314 313 313 312 311 310 310 310 310 311 311 311 312 311 310 309 308 308 309
283 285 284 286 289 289 288 290 293 294 293 291 290 290 292 293 291 287 282 279 280 285 289 289 290 289 287 285 284 284 284 283 282 282 283 284 286 292 299 304 307 309 309 308 307 307 308 309 308 309 310 312 313 314 314 314 314 314 314 314 314 314 314 314 314 314 314 314 314 313 312 311 311 311 311 311 312 312 312 312 312 311 311 311 313 314
282 286 287 289 291 293 295 296 296 296 295 293 292 291 290 290 287 283 280 281 283 287 289 288 288 288 287 284 282 282 281 278 276 276 279 283 289 295 302 306 307 308 307 305 304 305 307 307 307 308 310 312 313 314 314 314 314 314 314 314 314 314 314 315 315 315 315 314 313 313 312 311 311 311 311 312 312 312 312 312 312 311 312 314 315 316
282 287 289 292 294 295 296 296 295 294 293 293 291 288 287 286 284 282 280 280 284 287 288 289 290 291 290 286 284 282 279 274 270 274 283 290 295 300 304 305 304 304 305 304 304 306 307 307 307 308 309 311 313 314 314 313 314 314 313 314 314 315 315 316 316 316 315 314 313 313 312 312 312 312 312 312 313 312 312 312 312 312 313 314 315 315
283 287 289 291 292 293 293 294 293 291 292 292 290 287 286 284 283 281 279 278 281 284 284 286 288 291 292 291 286 280 277 273 273 279 288 295 299 303 305 303 301 301 305 305 306 306 306 306 307 308 309 311 313 313 313 313 314 314 313 314 315 316 316 317 316 316 315 315 314 313 313 313 312 312 313 313 313 313 312 312 312 312 313 313 313 313
286 287 287 288 288 290 292 293 292 291 291 290 289 288 286 282 279 277 274 273 275 279 280 280 280 281 286 288 285 280 276 274 278 287 295 299 301 303 304 302 301 302 304 306 306 306 305 305 306 307 309 311 312 312 313 313 313 314 314 315 316 317 317 317 316 316 316 315 314 314 313 313 313 313 313 313 312 312 312 312 312 312 312 312 312 312
286 286 286 286 288 290 292 291 291 290 290 289 289 288 285 280 277 275 273 273 272 271 274 276 276 275 276 278 280 279 276 274 283 297 302 302 303 304 304 302 302 303 304 305 306 306 306 306 306 308 310 311 312 312 312 313 314 314 315 316 317 317 317 317 317 317 316 316 315 314 313 313 313 313 313 313 312 312 312 312 312 312 312 312 312 312
285 285 285 286 289 291 291 290 290 290 290 290 290 288 285 283 281 278 276 274 270 267 267 269 270 270 271 274 277 279 277 279 291 307 308 304 303 303 302 302 303 304 305 306 308 309 308 307 307 309 310 311 312 312 313 314 315 315 316 317 317 317 318 318 317 317 317 316 315 315 314 313 313 313 313 313 312 312 312 312 311 311 311 312 312 311
285 284 282 283 285 288 289 288 288 288 289 291 290 287 285 285 283 279 277 273 269 265 263 262 264 268 272 275 278 279 279 288 304 316 308 304 302 301 302 304 306 308 308 309 310 311 310 309 309 309 309 310 311 312 314 315 315 316 316 317 317 318 318 318 318 318 317 317 316 315 314 314 314 313 313 313 313 313 312 312 312 312 312 312 312 311
280 282 283 283 282 282 283 286 287 288 289 289 286 282 281 282 280 277 274 272 269 267 267 266 269 273 277 277 276 276 279 291 304 310 304 301 299 300 304 308 311 311 310 310 312 313 312 311 309 308 308 309 311 313 314 314 315 315 316 317 317 318 318 318 318 318 318 317 316 315 315 314 314 314 313 313 313 313 313 313 312 312 312 312 312 311
280 282 285 286 285 284 286 288 290 292 293 290 284 281 280 279 277 274 273 271 272 273 276 278 280 282 283 280 276 276 281 292 300 302 297 293 296 300 306 312 314 312 310 311 312 313 313 311 309 308 308 308 310 312 314 314 315 315 316 317 318 318 319 319 319 319 318 318 317 316 316 315 315 314 314 313 313 313 313 313 313 313 313 312 311 311
286 287 289 289 290 291 292 293 294 295 294 291 288 286 285 283 281 279 277 276 276 277 279 281 283 283 281 276 273 276 285 294 299 296 287 288 293 299 306 313 314 312 309 311 312 314 314 312 311 310 309 309 310 312 314 315 315 316 316 317 318 319 319 319 319 319 319 319 318 318 317 316 315 315 314 314 314 314 313 313 313 313 313 312 312 311
291 290 290 290 290 291 292 293 293 292 291 290 289 289 289 289 287 284 282 280 279 280 282 283 280 274 270 267 271 280 290 296 296 289 281 288 294 299 305 311 313 311 309 312 314 316 315 314 313 312 311 310 310 312 314 315 316 316 317 318 318 319 319 320 320 320 320 320 319 319 318 317 316 315 315 315 315 315 314 314 314 313 313 312 312 311
290 289 289 289 288 287 287 288 288 289 292 295 297 298 298 297 293 288 282 279 279 279 276 270 263 260 261 265 275 287 294 297 295 287 281 286 294 300 305 311 313 312 310 313 316 317 316 314 313 313 312 311 311 313 315 316 317 317 317 318 319 320 320 321 321 321 321 321 320 320 319 318 317 317 316 315 315 315 314 314 314 314 313 313 312 311
288 289 289 289 288 287 287 289 291 295 300 302 303 303 303 304 301 294 281 277 278 276 265 267 269 268 266 271 283 292 298 298 294 287 284 288 293 299 306 312 315 315 314 315 316 317 316 314 313 312 312 312 313 314 316 317 318 318 318 319 320 321 322 323 324 324 323 323 322 322 321 320 319 318 317 316 316 315 315 314 314 314 314 314 314 312
291 293 296 297 298 298 298 298 301 303 305 305 304 302 302 302 301 297 287 288 287 280 265 269 271 271 277 287 291 294 296 293 285 281 288 297 297 299 307 314 318 318 318 317 317 316 315 313 312 312 313 313 315 316 317 318 318 319 320 321 322 323 325 326 327 327 326 326 325 324 323 322 320 318 317 316 316 315 315 315 315 315 316 315 315 313
297 305 312 317 319 319 317 313 310 307 305 303 302 302 300 298 295 292 291 294 290 278 260 255 254 256 268 279 285 288 288 278 265 277 304 310 304 302 311 317 320 322 323 322 320 319 317 315 315 316 315 316 317 317 317 318 320 321 321 322 324 325 327 329 329 329 329 328 328 327 326 324 322 320 318 317 316 316 316 316 316 316 316 316 315 314
319 326 327 327 327 326 322 317 311 306 302 300 299 299 296 294 291 289 290 291 284 269 247 241 239 241 253 269 281 281 269 233 240 311 324 320 310 309 316 320 322 324 328 327 325 321 318 317 318 318 318 317 317 317 318 319 320 321 321 322 324 326 328 330 331 331 331 331 330 329 328 327 325 322 319 317 317 317 317 317 317 317 317 316 315 314
327 325 322 321 320 320 318 315 310 306 302 300 298 297 295 294 294 293 292 289 278 262 243 239 239 238 240 256 275 279 255 244 306 320 326 319 310 311 317 320 321 324 328 329 328 321 317 317 318 319 320 319 318 317 317 318 320 320 320 322 323 325 327 330 332 333 334 333 332 331 329 328 326 324 321 319 318 317 316 317 318 318 317 316 315 313
319 318 317 316 315 315 315 312 309 307 305 302 300 298 298 298 298 298 296 288 274 260 248 244 243 241 237 244 256 271 286 295 307 316 321 313 307 309 314 317 318 320 323 323 319 313 310 313 315 317 319 318 317 316 316 317 319 320 320 321 322 323 326 329 331 332 333 332 331 330 330 328 326 324 321 319 318 317 316 317 318 318 317 315 313 312
314 314 313 313 312 312 311 309 307 306 305 303 302 302 303 303 303 301 295 282 268 256 249 248 246 244 245 250 259 271 283 294 305 314 314 310 308 309 312 314 315 316 318 318 314 309 303 304 310 314 316 315 315 315 315 317 319 320 320 321 320 321 324 327 329 330 330 329 329 330 330 328 326 323 320 318 317 317 316 316 316 317 316 314 312 311
312 312 311 312 311 309 307 305 303 302 302 303 305 308 309 308 306 299 288 274 260 250 247 249 251 255 260 263 270 279 288 300 313 319 314 313 310 308 310 311 312 314 316 316 315 312 307 305 308 312 313 313 313 313 314 316 318 320 320 320 319 319 322 324 326 326 327 327 327 328 328 327 325 322 320 318 317 316 316 316 316 316 315 313 311 309
312 312 312 312 312 310 308 306 305 304 304 306 311 316 318 315 306 294 278 266 255 247 244 246 256 267 277 280 285 290 295 310 320 322 316 314 311 308 309 308 309 312 314 314 315 314 311 309 310 311 312 312 312 312 313 316 318 319 319 319 318 317 318 320 322 323 324 324 324 324 324 324 322 320 319 318 317 317 316 315 316 315 314 313 311 308
313 312 312 313 314 315 315 315 315 315 314 315 319 323 325 321 309 290 271 260 252 246 243 246 258 276 289 294 296 298 305 317 323 323 318 314 310 307 306 303 303 307 310 311 313 313 311 310 310 310 311 310 310 311 313 317 319 320 319 319 318 317 317 318 320 320 321 321 321 321 321 321 319 318 318 318 317 317 317 316 317 317 316 314 311 308
312 310 309 312 315 317 319 321 322 323 324 324 324 326 328 326 313 289 265 254 248 246 250 261 276 291 301 306 308 310 314 319 322 322 320 316 312 308 303 300 302 304 305 307 309 310 311 311 311 311 310 309 308 310 313 317 319 320 319 319 318 318 317 319 319 319 319 318 318 318 319 319 318 318 318 318 319 319 319 319 319 319 318 316 313 310
312 309 308 310 313 316 318 319 321 323 325 325 325 327 329 327 315 286 256 243 241 248 262 280 295 306 312 314 315 315 316 319 322 324 324 321 317 313 309 304 302 302 301 300 303 306 309 309 310 310 309 308 306 307 310 314 317 317 317 317 317 316 316 319 320 320 319 318 317 317 318 318 318 318 319 319 320 320 319 319 320 320 319 318 316 313
313 309 308 309 311 313 315 316 317 320 322 322 323 326 328 324 308 271 238 229 233 248 270 292 308 316 319 320 318 317 316 319 323 326 326 324 320 316 314 309 306 304 303 302 302 302 302 302 302 303 305 306 306 307 309 311 313 314 315 316 317 317 318 319 320 320 319 318 318 319 319 320 320 319 318 318 319 318 318 317 318 319 319 318 317 315
315 311 310 310 311 312 313 313 314 316 318 319 322 325 326 318 290 241 220 217 227 249 278 303 317 324 326 323 320 316 315 318 321 324 325 324 321 318 316 314 312 310 309 308 305 302 298 297 296 296 298 300 302 305 307 308 309 311 314 316 316 316 318 319 319 320 319 318 318 318 318 320 319 318 317 317 317 316 316 315 316 317 318 316 315 314
318 315 313 312 312 313 312 312 312 314 316 319 323 327 325 308 256 214 205 208 224 254 289 312 325 330 331 329 324 320 317 318 321 323 323 324 323 323 321 319 318 316 315 313 308 303 297 294 294 294 295 297 299 301 303 303 305 307 309 310 309 310 313 316 317 318 318 318 318 318 319 319 319 318 318 317 316 315 314 314 313 314 316 315 313 311
320 317 314 313 313 314 314 314 316 319 322 328 332 333 325 283 213 194 192 200 223 264 296 318 330 334 335 335 334 332 329 326 324 324 324 324 326 326 326 325 323 321 318 315 311 305 300 296 293 293 294 297 299 300 301 301 302 304 304 304 307 310 313 316 318 319 320 319 319 320 320 320 319 319 318 317 316 316 316 315 314 313 313 313 312 311
321 318 316 315 315 318 321 323 326 330 334 336 335 332 314 219 188 184 187 199 229 273 308 328 337 339 337 336 337 338 339 336 331 328 327 328 329 330 329 328 325 322 320 317 313 307 303 299 295 293 293 296 296 296 296 298 302 304 304 306 310 313 315 316 318 320 320 320 320 320 321 320 320 319 318 317 317 317 318 318 318 317 317 315 315 314
322 320 319 319 321 324 328 330 332 334 335 334 332 329 299 181 175 178 188 205 238 284 319 335 341 341 338 335 334 336 339 338 337 334 333 335 336 336 334 331 328 325 322 320 314 309 306 303 299 296 296 296 294 292 292 294 298 302 305 309 310 309 306 307 312 316 318 319 320 321 322 322 321 320 319 318 318 319 320 320 321 322 323 323 321 320
326 323 320 319 321 322 321 322 327 331 333 333 334 334 156 164 169 178 192 216 255 299 325 339 342 340 335 333 334 335 336 337 339 341 343 344 344 343 339 335 331 328 326 322 317 310 304 299 298 299 300 298 293 289 288 291 296 302 307 312 312 308 304 306 310 314 316 318 320 321 323 323 323 322 320 320 320 321 322 322 323 325 327 329 329 328
327 322 318 317 317 317 317 320 326 331 334 337 343 52 153 164 174 185 204 233 279 314 330 339 341 337 331 331 334 336 338 340 343 346 349 349 349 347 343 339 335 332 329 326 322 316 307 299 296 298 300 298 294 289 287 290 296 303 309 313 314 313 311 312 314 316 317 318 319 321 324 325 325 323 321 320 321 322 324 326 327 329 331 334 337 339
324 321 319 318 317 317 319 323 328 332 335 340 13 153 163 171 181 196 221 262 301 323 332 337 337 333 328 330 335 340 343 343 343 346 349 350 350 349 347 343 340 337 333 330 327 323 316 309 303 298 294 292 291 292 295 299 303 305 308 312 314 314 314 315 317 319 320 319 319 321 324 326 325 323 321 321 322 324 327 330 333 336 338 341 344 348
322 320 318 317 317 318 320 325 330 334 336 337 164 167 173 179 190 209 237 274 314 330 333 334 332 329 329 333 339 344 346 344 344 346 348 349 350 350 349 347 345 342 337 334 331 329 326 325 318 306 292 285 283 289 299 306 310 310 310 312 314 314 313 314 318 321 322 321 321 322 324 324 322 320 320 321 322 325 328 332 337 341 345 349 351 354
319 317 316 316 317 319 321 326 331 333 329 202 174 175 180 188 207 231 251 279 317 333 334 332 330 329 329 335 341 345 348 348 348 349 350 350 350 350 351 350 348 344 339 335 332 332 334 338 341 336 312 297 291 293 302 309 312 314 314 314 314 314 314 315 318 321 322 322 323 324 325 324 322 320 319 319 320 322 326 330 337 344 350 354 358 1
317 315 315 316 317 318 321 325 330 329 279 182 175 180 196 221 242 253 265 288 318 331 333 333 331 329 329 335 343 347 349 349 350 351 351 352 354 355 355 353 350 346 343 341 340 339 337 338 346 354 352 341 319 309 309 312 315 317 318 318 318 318 316 316 318 321 323 323 324 325 326 325 325 325 323 320 320 322 325 330 335 343 350 356 1 6
316 314 315 316 317 317 318 322 327 293 169 169 174 190 229 246 250 251 263 288 313 325 332 334 332 329 328 336 344 347 349 349 350 350 350 353 357 359 358 356 353 349 347 345 345 346 346 343 342 346 350 350 332 318 316 316 317 319 320 321 322 322 320 319 320 322 323 323 324 325 326 326 327 328 326 324 323 325 327 329 333 339 348 354 360 7